Location: Argonnex
(45.9500°N, 6.1333°E)
Time: 09:03:50
(UTC+00:00)

CZ-6A DEB - Pass Details

Date: 23 February 2024
Orbit: 827 x 907 km, 98.8° (Epoch: 12 April)

Event Time Altitude Azimuth Distance (km) Brightness Sun altitude
Rises 04:45:38 0° 23° (NNE) 3,456 ? -18.2°
Reaches altitude 10° 04:48:20 10° 34° (NNE) 2,500 ? -17.7°
Maximum altitude 04:53:11 31° 95° (E) 1,462 ? -16.9°
Drops below altitude 10° 04:57:55 10° 156° (SSE) 2,445 ? -16.0°
Sets 05:00:31 0° 167° (SSE) 3,366 ? -15.6°
